Location: Brahman Valley
(40.6513°N, 111.8855°W)
Time: 07:46:23
(UTC+00:00)

Tiros 1 despin weight - Pass Details

Date: 18 May 2021
Orbit: 594 x 641 km, 48.2° (Epoch: 22 June)

Event Time Altitude Azimuth Distance (km) Brightness Sun altitude
Rises 02:29:49 0° 251° (WSW) 2,902 ? 0.9°
Reaches altitude 10° 02:32:08 10° 255° (WSW) 2,004 ? 0.5°
Maximum altitude 02:36:43 61° 335° (NNW) 721 ? -0.3°
Drops below altitude 10° 02:41:21 10° 57° (ENE) 2,030 ? -1.1°
Sets 02:43:44 0° 61° (ENE) 2,943 ? -1.5°
